Year,Month,Day,Hour,Minute,Value (Times are PST for temperature in C)
2008,06,24,00,00,14.50
2008,06,24,00,01,14.40
2008,06,24,00,02,14.40
2008,06,24,00,03,14.40
2008,06,24,00,04,14.30
2008,06,24,00,05,14.30
2008,06,24,00,06,14.30
2008,06,24,00,07,14.30
2008,06,24,00,08,14.20
2008,06,24,00,09,14.20
2008,06,24,00,10,14.20
2008,06,24,00,11,14.20
2008,06,24,00,12,14.20
2008,06,24,00,13,14.20
2008,06,24,01,02,13.90
2008,06,24,01,03,13.90
2008,06,24,01,04,13.90
2008,06,24,01,05,13.90
2008,06,24,01,06,13.90
2008,06,24,01,07,13.90
2008,06,24,01,08,14.00
2008,06,24,01,09,14.00
2008,06,24,01,10,13.90
2008,06,24,01,11,13.90
2008,06,24,01,12,13.90
2008,06,24,01,13,13.80
2008,06,24,01,14,13.80
2008,06,24,01,15,13.80
2008,06,24,01,16,13.80
2008,06,24,01,17,13.80
2008,06,24,01,18,13.90
2008,06,24,01,19,13.90
2008,06,24,01,20,13.90
2008,06,24,01,21,13.90
2008,06,24,01,22,14.00
2008,06,24,01,23,14.00
2008,06,24,01,24,14.00
2008,06,24,01,25,14.00
2008,06,24,01,26,14.00
2008,06,24,01,27,13.90
2008,06,24,01,28,13.90
2008,06,24,01,29,13.90
2008,06,24,01,30,13.90
2008,06,24,01,31,13.90
2008,06,24,01,32,13.90
2008,06,24,01,33,13.90
2008,06,24,01,34,13.90
2008,06,24,01,35,13.80
2008,06,24,01,36,13.80
2008,06,24,01,37,13.80
2008,06,24,01,38,13.80
2008,06,24,01,39,13.80
2008,06,24,01,40,13.80
2008,06,24,01,41,13.70
2008,06,24,01,42,13.70
2008,06,24,01,43,13.70
2008,06,24,01,44,13.70
2008,06,24,01,45,13.70
2008,06,24,01,46,13.70
2008,06,24,01,47,13.70
2008,06,24,01,48,13.70
2008,06,24,01,49,13.70
2008,06,24,01,50,13.70
2008,06,24,01,51,13.70
2008,06,24,01,52,13.60
2008,06,24,01,53,13.60
2008,06,24,01,54,13.60
2008,06,24,01,55,13.60
2008,06,24,01,56,13.60
2008,06,24,01,57,13.50
2008,06,24,01,58,13.50
2008,06,24,01,59,13.40
2008,06,24,02,00,13.40
2008,06,24,02,01,13.50
2008,06,24,02,02,13.50
2008,06,24,02,03,13.50
2008,06,24,02,04,13.50
2008,06,24,02,05,13.50
2008,06,24,02,06,13.60
2008,06,24,02,07,13.60
2008,06,24,02,08,13.60
2008,06,24,02,09,13.60
2008,06,24,02,10,13.60
2008,06,24,02,11,13.60
2008,06,24,02,12,13.70
2008,06,24,02,13,13.70
2008,06,24,02,14,13.70
2008,06,24,02,15,13.80
2008,06,24,02,16,13.80
2008,06,24,02,17,13.80
2008,06,24,02,18,13.90
2008,06,24,02,19,13.90
2008,06,24,02,20,13.90
2008,06,24,02,21,14.00
2008,06,24,02,22,14.00
2008,06,24,02,23,14.10
2008,06,24,02,24,14.10
2008,06,24,02,25,14.20
2008,06,24,02,26,14.10
2008,06,24,02,27,14.10
2008,06,24,02,28,14.10
2008,06,24,02,29,14.00
2008,06,24,02,30,14.00
2008,06,24,02,31,14.00
2008,06,24,02,32,13.90
2008,06,24,02,33,13.90
2008,06,24,02,34,13.90
2008,06,24,02,35,13.80
2008,06,24,02,36,13.80
2008,06,24,02,37,13.80
2008,06,24,02,38,13.80
2008,06,24,02,39,13.70
2008,06,24,02,40,13.70
2008,06,24,02,41,13.60
2008,06,24,02,42,13.60
2008,06,24,02,43,13.60
2008,06,24,02,44,13.50
2008,06,24,02,45,13.50
2008,06,24,02,46,13.40
2008,06,24,02,47,13.40
2008,06,24,02,48,13.40
2008,06,24,02,49,13.30
2008,06,24,02,50,13.30
2008,06,24,02,51,13.30
2008,06,24,02,52,13.40
2008,06,24,02,53,13.50
2008,06,24,02,54,13.60
2008,06,24,02,55,13.60
2008,06,24,02,56,13.70
2008,06,24,02,57,13.70
2008,06,24,02,58,13.70
2008,06,24,02,59,13.70
2008,06,24,03,00,13.70
2008,06,24,03,01,13.70
2008,06,24,03,02,13.70
2008,06,24,03,03,13.70
2008,06,24,03,04,13.70
2008,06,24,03,05,13.70
2008,06,24,03,06,13.70
2008,06,24,03,07,13.70
2008,06,24,03,08,13.70
2008,06,24,03,09,13.70
2008,06,24,03,10,13.80
2008,06,24,03,11,13.80
2008,06,24,03,12,13.70
2008,06,24,03,13,13.70
2008,06,24,03,14,13.70
2008,06,24,03,15,13.70
2008,06,24,03,16,13.60
2008,06,24,03,17,13.60
2008,06,24,03,18,13.60
2008,06,24,03,19,13.60
2008,06,24,03,20,13.60
2008,06,24,03,21,13.60
2008,06,24,03,22,13.50
2008,06,24,03,23,13.50
2008,06,24,03,24,13.50
2008,06,24,03,25,13.50
2008,06,24,03,26,13.40
2008,06,24,03,27,13.40
2008,06,24,03,28,13.40
2008,06,24,03,29,13.40
2008,06,24,03,30,13.40
2008,06,24,03,31,13.40
2008,06,24,03,32,13.40
2008,06,24,03,33,13.40
2008,06,24,03,34,13.40
2008,06,24,03,35,13.40
2008,06,24,03,36,13.30
2008,06,24,03,37,13.30
2008,06,24,03,38,13.30
2008,06,24,03,39,13.30
2008,06,24,03,40,13.30
2008,06,24,03,41,13.20
2008,06,24,03,42,13.20
2008,06,24,03,43,13.20
2008,06,24,03,44,13.20
2008,06,24,03,45,13.20
2008,06,24,03,46,13.20
2008,06,24,03,47,13.20
2008,06,24,03,48,13.20
2008,06,24,03,49,13.20
2008,06,24,03,50,13.20
2008,06,24,03,51,13.20
2008,06,24,03,52,13.20
2008,06,24,03,53,13.20
2008,06,24,03,54,13.20
2008,06,24,03,55,13.20
2008,06,24,03,56,13.20
2008,06,24,03,57,13.20
2008,06,24,03,58,13.10
2008,06,24,03,59,13.10
2008,06,24,04,00,13.10
2008,06,24,04,01,13.10
2008,06,24,04,02,13.10
2008,06,24,04,03,13.10
2008,06,24,04,04,13.10
2008,06,24,04,05,13.10
2008,06,24,04,06,13.00
2008,06,24,04,07,13.00
2008,06,24,04,08,13.00
2008,06,24,04,09,12.90
2008,06,24,04,10,12.90
2008,06,24,04,11,12.90
2008,06,24,04,12,12.90
2008,06,24,04,13,12.90
2008,06,24,04,14,12.90
2008,06,24,04,15,12.90
2008,06,24,04,16,12.90
2008,06,24,04,17,12.90
2008,06,24,04,18,12.90
2008,06,24,04,19,12.90
2008,06,24,04,20,12.80
2008,06,24,04,21,12.80
2008,06,24,04,22,12.80
2008,06,24,04,23,12.80
2008,06,24,04,24,12.80
2008,06,24,04,25,12.80
2008,06,24,04,26,12.80
2008,06,24,04,27,12.80
2008,06,24,04,28,12.80
2008,06,24,04,29,12.90
2008,06,24,04,30,12.90
2008,06,24,04,31,12.90
2008,06,24,04,32,12.90
2008,06,24,04,33,12.90
2008,06,24,04,34,12.80
2008,06,24,04,35,12.80
2008,06,24,04,36,12.80
2008,06,24,04,37,12.80
2008,06,24,04,38,12.80
2008,06,24,04,39,12.80
2008,06,24,04,40,12.80
2008,06,24,04,41,12.80
2008,06,24,04,42,12.80
2008,06,24,04,43,12.80
2008,06,24,04,44,12.80
2008,06,24,04,45,12.70
2008,06,24,04,46,12.70
2008,06,24,04,47,12.70
2008,06,24,04,48,12.70
2008,06,24,04,49,12.70
2008,06,24,04,50,12.70
2008,06,24,04,51,12.70
2008,06,24,04,52,12.60
2008,06,24,04,53,12.60
2008,06,24,04,54,12.60
2008,06,24,04,55,12.60
2008,06,24,04,56,12.60
2008,06,24,04,57,12.60
2008,06,24,04,58,12.60
2008,06,24,04,59,12.60
2008,06,24,05,00,12.60
2008,06,24,05,01,12.60
2008,06,24,05,02,12.60
2008,06,24,05,03,12.60
2008,06,24,05,04,12.60
2008,06,24,05,05,12.60
2008,06,24,05,06,12.60
2008,06,24,05,07,12.60
2008,06,24,05,08,12.60
2008,06,24,05,09,12.70
2008,06,24,05,10,12.70
2008,06,24,05,11,12.70
2008,06,24,05,12,12.70
2008,06,24,05,13,12.70
2008,06,24,05,14,12.80
2008,06,24,05,15,12.80
2008,06,24,05,16,12.80
2008,06,24,05,17,12.80
2008,06,24,05,18,12.80
2008,06,24,05,19,12.80
2008,06,24,05,20,12.80
2008,06,24,05,21,12.80
2008,06,24,05,22,12.80
2008,06,24,05,23,12.80
2008,06,24,05,24,12.80
2008,06,24,05,25,12.80
2008,06,24,05,26,12.80
2008,06,24,05,27,12.80
2008,06,24,05,28,12.80
2008,06,24,05,29,12.80
2008,06,24,05,30,12.80
2008,06,24,05,31,12.80
2008,06,24,05,32,12.80
2008,06,24,05,33,12.80
2008,06,24,05,34,12.80
2008,06,24,05,35,12.80
2008,06,24,05,36,12.80
2008,06,24,05,37,12.80
2008,06,24,05,38,12.80
2008,06,24,05,39,12.80
2008,06,24,05,40,12.80
2008,06,24,05,41,12.80
2008,06,24,05,42,12.80
2008,06,24,05,43,12.80
2008,06,24,05,44,12.80
2008,06,24,05,45,12.80
2008,06,24,05,46,12.80
2008,06,24,05,47,12.80
2008,06,24,05,48,12.80
2008,06,24,05,49,12.80
2008,06,24,05,50,12.80
2008,06,24,05,51,12.80
2008,06,24,05,52,12.90
2008,06,24,05,53,12.90
2008,06,24,05,54,12.90
2008,06,24,05,55,12.90
2008,06,24,05,56,12.90
2008,06,24,05,57,12.90
2008,06,24,05,58,13.00
2008,06,24,05,59,13.00
2008,06,24,06,00,13.00
2008,06,24,06,01,13.10
2008,06,24,06,02,13.10
2008,06,24,06,03,13.20
2008,06,24,06,04,13.20
2008,06,24,06,05,13.20
2008,06,24,06,06,13.20
2008,06,24,06,07,13.20
2008,06,24,06,08,13.20
2008,06,24,06,09,13.20
2008,06,24,06,10,13.20
2008,06,24,06,11,13.20
2008,06,24,06,12,13.20
2008,06,24,06,13,13.20
2008,06,24,06,14,13.20
2008,06,24,06,15,13.20
2008,06,24,06,16,13.30
2008,06,24,06,17,13.30
2008,06,24,06,18,13.30
2008,06,24,06,19,13.30
2008,06,24,06,20,13.30
2008,06,24,06,21,13.30
2008,06,24,06,22,13.30
2008,06,24,06,23,13.30
2008,06,24,06,24,13.30
2008,06,24,06,25,13.30
2008,06,24,06,26,13.30
2008,06,24,06,27,13.30
2008,06,24,06,28,13.30
2008,06,24,06,29,13.20
2008,06,24,06,30,13.20
2008,06,24,06,31,13.20
2008,06,24,06,32,13.20
2008,06,24,06,33,13.20
2008,06,24,06,34,13.20
2008,06,24,06,35,13.20
2008,06,24,06,36,13.20
2008,06,24,06,37,13.20
2008,06,24,06,38,13.20
2008,06,24,06,39,13.30
2008,06,24,06,40,13.30
2008,06,24,06,41,13.30
2008,06,24,06,42,13.30
2008,06,24,06,43,13.40
2008,06,24,06,44,13.40
2008,06,24,06,45,13.40
2008,06,24,06,46,13.40
2008,06,24,06,47,13.40
2008,06,24,06,48,13.40
2008,06,24,06,49,13.40
2008,06,24,06,50,13.40
2008,06,24,06,51,13.50
2008,06,24,06,52,13.60
2008,06,24,06,53,13.60
2008,06,24,06,54,13.70
2008,06,24,06,55,13.70
2008,06,24,06,56,13.70
2008,06,24,06,57,13.80
2008,06,24,06,58,13.80
2008,06,24,06,59,13.80
2008,06,24,07,00,13.80
2008,06,24,07,01,13.80
2008,06,24,07,02,13.80
2008,06,24,07,03,13.80
2008,06,24,07,04,13.80
2008,06,24,07,05,13.80
2008,06,24,07,06,13.80
2008,06,24,07,07,13.90
2008,06,24,07,08,14.00
2008,06,24,07,09,14.10
2008,06,24,07,10,14.20
2008,06,24,07,11,14.20
2008,06,24,07,12,14.30
2008,06,24,07,13,14.30
2008,06,24,07,14,14.50
2008,06,24,07,15,14.50
2008,06,24,07,16,14.60
2008,06,24,07,17,14.70
2008,06,24,07,18,14.80
2008,06,24,07,19,15.00
2008,06,24,07,20,15.00
2008,06,24,07,21,15.00
2008,06,24,07,22,15.00
2008,06,24,07,23,15.00
2008,06,24,07,24,15.10
2008,06,24,07,25,15.20
2008,06,24,07,26,15.40
2008,06,24,07,27,15.50
2008,06,24,07,28,15.70
2008,06,24,07,29,15.80
2008,06,24,07,30,15.80
2008,06,24,07,31,15.90
2008,06,24,07,32,16.00
2008,06,24,07,33,16.00
2008,06,24,07,34,16.10
2008,06,24,07,35,16.20
2008,06,24,07,36,16.20
2008,06,24,07,37,16.30
2008,06,24,07,38,16.30
2008,06,24,07,39,16.30
2008,06,24,07,40,16.30
2008,06,24,07,41,16.30
2008,06,24,07,42,16.30
2008,06,24,07,43,16.20
2008,06,24,07,44,16.10
2008,06,24,07,45,16.00
2008,06,24,07,46,15.90
2008,06,24,07,47,15.80
2008,06,24,07,48,15.80
2008,06,24,07,49,15.70
2008,06,24,07,50,15.70
2008,06,24,07,51,15.60
2008,06,24,07,52,15.60
2008,06,24,07,53,15.50
2008,06,24,07,54,15.40
2008,06,24,07,55,15.40
2008,06,24,07,56,15.30
2008,06,24,07,57,15.30
2008,06,24,07,58,15.30
2008,06,24,07,59,15.20
2008,06,24,08,00,15.20
2008,06,24,08,01,15.20
2008,06,24,08,02,15.20
2008,06,24,08,03,15.20
2008,06,24,08,04,15.20
2008,06,24,08,05,15.20
2008,06,24,08,06,15.20
2008,06,24,08,07,15.20
2008,06,24,08,08,15.20
2008,06,24,08,09,15.20
2008,06,24,08,10,15.30
2008,06,24,08,11,15.30
2008,06,24,08,12,15.30
2008,06,24,08,13,15.40
2008,06,24,08,14,15.40
2008,06,24,08,15,15.50
2008,06,24,08,16,15.50
2008,06,24,08,17,15.50
2008,06,24,08,18,15.60
2008,06,24,08,19,15.60
2008,06,24,08,20,15.60
2008,06,24,08,21,15.60
2008,06,24,08,22,15.70
2008,06,24,08,23,15.70
2008,06,24,08,24,15.70
2008,06,24,08,25,15.70
2008,06,24,08,26,15.70
2008,06,24,08,27,15.70
2008,06,24,08,28,15.80
2008,06,24,08,29,15.80
2008,06,24,08,30,15.80
2008,06,24,08,31,15.80
2008,06,24,08,32,15.70
2008,06,24,08,33,15.80
2008,06,24,08,34,15.70
2008,06,24,08,35,15.70
2008,06,24,08,36,15.70
2008,06,24,08,37,15.60
2008,06,24,08,38,15.60
2008,06,24,08,39,15.60
2008,06,24,08,40,15.60
2008,06,24,08,41,15.50
2008,06,24,08,42,15.50
2008,06,24,08,43,15.50
2008,06,24,08,44,15.50
2008,06,24,08,45,15.50
2008,06,24,08,46,15.50
2008,06,24,08,47,15.70
2008,06,24,08,48,15.70
2008,06,24,08,49,15.70
2008,06,24,08,50,15.80
2008,06,24,08,51,15.80
2008,06,24,08,52,15.90
2008,06,24,08,53,15.90
2008,06,24,08,54,15.90
2008,06,24,08,55,15.90
2008,06,24,08,56,15.90
2008,06,24,08,57,15.80
2008,06,24,08,58,15.80
2008,06,24,08,59,15.70
2008,06,24,09,00,15.80
2008,06,24,09,01,15.90
2008,06,24,09,02,16.00
2008,06,24,09,03,16.10
2008,06,24,09,04,16.20
2008,06,24,09,05,16.30
2008,06,24,09,06,16.40
2008,06,24,09,07,16.40
2008,06,24,09,08,16.30
2008,06,24,09,09,16.30
2008,06,24,09,10,16.30
2008,06,24,09,11,16.30
2008,06,24,09,12,16.20
2008,06,24,09,13,16.00
2008,06,24,09,14,15.90
2008,06,24,09,15,15.90
2008,06,24,09,16,16.00
2008,06,24,09,17,16.00
2008,06,24,09,18,16.10
2008,06,24,09,19,16.20
2008,06,24,09,20,16.20
2008,06,24,09,21,16.30
2008,06,24,09,22,16.40
2008,06,24,09,23,16.50
2008,06,24,09,24,16.60
2008,06,24,09,25,16.60
2008,06,24,09,26,16.60
2008,06,24,09,27,16.70
2008,06,24,09,28,16.70
2008,06,24,09,29,16.80
2008,06,24,09,30,16.90
2008,06,24,09,31,16.90
2008,06,24,09,32,16.90
2008,06,24,09,33,16.80
2008,06,24,09,34,16.80
2008,06,24,09,35,16.80
2008,06,24,09,36,16.80
2008,06,24,09,37,16.70
2008,06,24,09,38,16.70
2008,06,24,09,39,16.70
2008,06,24,09,40,16.80
2008,06,24,09,41,16.70
2008,06,24,09,42,16.70
2008,06,24,09,43,16.70
2008,06,24,09,44,16.70
2008,06,24,09,45,16.70
2008,06,24,09,46,16.70
2008,06,24,09,47,16.80
2008,06,24,09,48,16.80
2008,06,24,09,49,16.90
2008,06,24,09,50,17.10
2008,06,24,09,51,17.10
2008,06,24,09,52,17.10
2008,06,24,09,53,17.10
2008,06,24,09,54,17.10
2008,06,24,09,55,17.10
2008,06,24,09,56,17.10
2008,06,24,09,57,17.10
2008,06,24,09,58,17.10
2008,06,24,09,59,17.10
2008,06,24,10,00,17.20
2008,06,24,10,01,17.20
2008,06,24,10,02,17.30
2008,06,24,10,03,17.30
2008,06,24,10,04,17.30
2008,06,24,10,05,17.40
2008,06,24,10,06,17.40
2008,06,24,10,07,17.40
2008,06,24,10,08,17.50
2008,06,24,10,09,17.60
2008,06,24,10,10,17.60
2008,06,24,10,11,17.60
2008,06,24,10,12,17.70
2008,06,24,10,13,17.90
2008,06,24,10,14,17.90
2008,06,24,10,15,17.80
2008,06,24,10,16,17.80
2008,06,24,10,17,17.90
2008,06,24,10,18,17.90
2008,06,24,10,19,18.00
2008,06,24,10,20,18.10
2008,06,24,10,21,18.10
2008,06,24,10,22,18.10
2008,06,24,10,23,18.00
2008,06,24,10,24,18.00
2008,06,24,10,25,18.00
2008,06,24,10,26,18.10
2008,06,24,10,27,18.20
2008,06,24,10,28,18.30
2008,06,24,10,29,18.50
2008,06,24,10,30,18.60
2008,06,24,10,31,18.70
2008,06,24,10,32,18.70
2008,06,24,10,33,18.70
2008,06,24,10,34,18.80
2008,06,24,10,35,18.80
2008,06,24,10,36,18.80
2008,06,24,10,37,18.80
2008,06,24,10,38,18.90
2008,06,24,10,39,18.90
2008,06,24,10,40,18.90
2008,06,24,10,41,18.80
2008,06,24,10,42,18.60
2008,06,24,10,43,18.40
2008,06,24,10,44,18.30
2008,06,24,10,45,18.20
2008,06,24,10,46,18.20
2008,06,24,10,47,18.20
2008,06,24,10,48,18.10
2008,06,24,10,49,17.90
2008,06,24,10,50,17.70
2008,06,24,10,51,17.50
2008,06,24,10,52,17.30
2008,06,24,10,53,17.10
2008,06,24,10,54,17.00
2008,06,24,10,55,16.80
2008,06,24,10,56,16.60
2008,06,24,10,57,16.50
2008,06,24,10,58,16.40
2008,06,24,10,59,16.30
2008,06,24,11,00,16.10
2008,06,24,11,01,16.10
2008,06,24,11,02,16.00
2008,06,24,11,03,16.00
2008,06,24,11,04,15.90
2008,06,24,11,05,15.90
2008,06,24,11,06,15.80
2008,06,24,11,07,15.70
2008,06,24,11,08,15.70
2008,06,24,11,09,15.60
2008,06,24,11,10,15.60
2008,06,24,11,11,15.70
2008,06,24,11,12,15.70
2008,06,24,11,13,15.70
2008,06,24,11,14,15.70
2008,06,24,11,15,15.70
2008,06,24,11,16,15.80
2008,06,24,11,17,15.90
2008,06,24,11,18,15.90
2008,06,24,11,19,15.80
2008,06,24,11,20,15.80
2008,06,24,11,21,15.80
2008,06,24,11,22,15.70
2008,06,24,11,23,15.60
2008,06,24,11,24,15.60
2008,06,24,11,25,15.50
2008,06,24,11,26,15.50
2008,06,24,11,27,15.40
2008,06,24,11,28,15.40
2008,06,24,11,29,15.30
2008,06,24,11,30,15.20
2008,06,24,11,31,15.20
2008,06,24,11,32,15.20
2008,06,24,11,33,15.20
2008,06,24,11,34,15.20
2008,06,24,11,35,15.20
2008,06,24,11,36,15.20
2008,06,24,11,37,15.10
2008,06,24,11,38,15.10
2008,06,24,11,39,15.10
2008,06,24,11,40,15.00
2008,06,24,11,41,15.00
2008,06,24,11,42,15.00
2008,06,24,11,43,15.00
2008,06,24,11,44,15.00
2008,06,24,11,45,15.00
2008,06,24,11,46,15.10
2008,06,24,11,47,15.10
2008,06,24,11,48,15.20
2008,06,24,11,49,15.20
2008,06,24,11,50,15.30
2008,06,24,11,51,15.30
2008,06,24,11,52,15.30
2008,06,24,11,53,15.30
2008,06,24,11,54,15.30
2008,06,24,11,55,15.30
2008,06,24,11,56,15.30
2008,06,24,11,57,15.40
2008,06,24,11,58,15.50
2008,06,24,11,59,15.60
2008,06,24,12,00,15.60
2008,06,24,12,01,15.60
2008,06,24,12,02,15.70
2008,06,24,12,03,15.70
2008,06,24,12,04,15.70
2008,06,24,12,05,15.70
2008,06,24,12,06,15.70
2008,06,24,12,07,15.70
2008,06,24,12,08,15.70
2008,06,24,12,09,15.50
2008,06,24,12,10,15.40
2008,06,24,12,11,15.30
2008,06,24,12,12,15.20
2008,06,24,12,13,15.00
2008,06,24,12,14,15.00
2008,06,24,12,15,15.00
2008,06,24,12,16,15.00
2008,06,24,12,17,15.00
2008,06,24,12,18,15.00
2008,06,24,12,19,15.00
2008,06,24,12,20,15.10
2008,06,24,12,21,15.00
2008,06,24,12,22,15.00
2008,06,24,12,23,15.00
2008,06,24,12,24,15.00
2008,06,24,12,25,15.00
2008,06,24,12,26,15.00
2008,06,24,12,27,15.00
2008,06,24,12,28,15.20
2008,06,24,12,29,15.30
2008,06,24,12,30,15.40
2008,06,24,12,31,15.50
2008,06,24,12,32,15.60
2008,06,24,12,33,15.80
2008,06,24,12,34,15.90
2008,06,24,12,35,15.90
2008,06,24,12,36,15.90
2008,06,24,12,37,15.90
2008,06,24,12,38,15.90
2008,06,24,12,39,15.90
2008,06,24,12,40,15.80
2008,06,24,12,41,15.60
2008,06,24,12,42,15.60
2008,06,24,12,43,15.50
2008,06,24,12,44,15.30
2008,06,24,12,45,15.20
2008,06,24,12,46,15.10
2008,06,24,12,47,15.00
2008,06,24,12,48,15.00
2008,06,24,12,49,15.00
2008,06,24,12,50,15.00
2008,06,24,12,51,15.00
2008,06,24,12,52,15.00
2008,06,24,12,53,15.00
2008,06,24,12,54,15.10
2008,06,24,12,55,15.10
2008,06,24,12,56,15.20
2008,06,24,12,57,15.20
2008,06,24,12,58,15.20
2008,06,24,12,59,15.30
2008,06,24,13,00,15.30
2008,06,24,13,01,15.30
2008,06,24,13,02,15.30
2008,06,24,13,03,15.30
2008,06,24,13,04,15.30
2008,06,24,13,05,15.30
2008,06,24,13,06,15.30
2008,06,24,13,07,15.40
2008,06,24,13,08,15.40
2008,06,24,13,09,15.40
2008,06,24,13,10,15.30
2008,06,24,13,11,15.30
2008,06,24,13,12,15.30
2008,06,24,13,13,15.20
2008,06,24,13,14,15.20
2008,06,24,13,15,15.10
2008,06,24,13,16,15.00
2008,06,24,13,17,15.00
2008,06,24,13,18,15.00
2008,06,24,13,19,15.00
2008,06,24,13,20,15.00
2008,06,24,13,21,15.10
2008,06,24,13,22,15.10
2008,06,24,13,23,15.20
2008,06,24,13,24,15.20
2008,06,24,13,25,15.20
2008,06,24,13,26,15.30
2008,06,24,13,27,15.40
2008,06,24,13,28,15.50
2008,06,24,13,29,15.50
2008,06,24,13,30,15.50
2008,06,24,13,31,15.60
2008,06,24,13,32,15.60
2008,06,24,13,33,15.60
2008,06,24,13,34,15.60
2008,06,24,13,35,15.60
2008,06,24,13,36,15.60
2008,06,24,13,37,15.60
2008,06,24,13,38,15.60
2008,06,24,13,39,15.60
2008,06,24,13,40,15.60
2008,06,24,13,41,15.60
2008,06,24,13,42,15.60
2008,06,24,13,43,15.60
2008,06,24,13,44,15.50
2008,06,24,13,45,15.50
2008,06,24,13,46,15.50
2008,06,24,13,47,15.60
2008,06,24,13,48,15.60
2008,06,24,13,49,15.60
2008,06,24,13,50,15.60
2008,06,24,13,51,15.70
2008,06,24,13,52,15.70
2008,06,24,13,53,15.70
2008,06,24,13,54,15.70
2008,06,24,13,55,15.80
2008,06,24,13,56,15.80
2008,06,24,13,57,15.90
2008,06,24,13,58,16.00
2008,06,24,13,59,16.10
2008,06,24,14,00,16.10
2008,06,24,14,01,16.20
2008,06,24,14,02,16.20
2008,06,24,14,03,16.10
2008,06,24,14,04,16.00
2008,06,24,14,05,15.90
2008,06,24,14,06,15.80
2008,06,24,14,07,15.80
2008,06,24,14,08,15.80
2008,06,24,14,09,15.80
2008,06,24,14,10,15.80
2008,06,24,14,11,15.80
2008,06,24,14,12,15.80
2008,06,24,14,13,15.80
2008,06,24,14,14,15.90
2008,06,24,14,15,15.80
2008,06,24,14,16,15.60
2008,06,24,14,17,15.60
2008,06,24,14,18,15.60
2008,06,24,14,19,15.60
2008,06,24,14,20,15.60
2008,06,24,14,21,15.60
2008,06,24,14,22,15.60
2008,06,24,14,23,15.50
2008,06,24,14,24,15.40
2008,06,24,14,25,15.40
2008,06,24,14,26,15.30
2008,06,24,14,27,15.40
2008,06,24,14,28,15.30
2008,06,24,14,29,15.30
2008,06,24,14,30,15.30
2008,06,24,14,31,15.30
2008,06,24,14,32,15.30
2008,06,24,14,33,15.30
2008,06,24,14,34,15.30
2008,06,24,14,35,15.30
2008,06,24,14,36,15.20
2008,06,24,14,37,15.20
2008,06,24,14,38,15.20
2008,06,24,14,39,15.10
2008,06,24,14,40,15.10
2008,06,24,14,41,15.10
2008,06,24,14,42,15.20
2008,06,24,14,43,15.30
2008,06,24,14,44,15.40
2008,06,24,14,45,15.40
2008,06,24,14,46,15.50
2008,06,24,14,47,15.50
2008,06,24,14,48,15.40
2008,06,24,14,49,15.40
2008,06,24,14,50,15.40
2008,06,24,14,51,15.40
2008,06,24,14,52,15.50
2008,06,24,14,53,15.50
2008,06,24,14,54,15.50
2008,06,24,14,55,15.60
2008,06,24,14,56,15.60
2008,06,24,14,57,15.60
2008,06,24,14,58,15.70
2008,06,24,14,59,15.70
2008,06,24,15,00,15.70
2008,06,24,15,01,15.70
2008,06,24,15,02,15.80
2008,06,24,15,03,15.90
2008,06,24,15,04,15.80
2008,06,24,15,05,15.80
2008,06,24,15,06,15.70
2008,06,24,15,07,15.70
2008,06,24,15,08,15.70
2008,06,24,15,09,15.70
2008,06,24,15,10,15.60
2008,06,24,15,11,15.60
2008,06,24,15,12,15.70
2008,06,24,15,13,15.70
2008,06,24,15,14,15.80
2008,06,24,15,15,15.90
2008,06,24,15,16,15.90
2008,06,24,15,17,16.00
2008,06,24,15,18,16.00
2008,06,24,15,19,16.00
2008,06,24,15,20,16.10
2008,06,24,15,21,16.10
2008,06,24,15,22,16.20
2008,06,24,15,23,16.30
2008,06,24,15,24,16.30
2008,06,24,15,25,16.40
2008,06,24,15,26,16.50
2008,06,24,15,27,16.60
2008,06,24,15,28,16.50
2008,06,24,15,29,16.50
2008,06,24,15,30,16.50
2008,06,24,15,31,16.50
2008,06,24,15,32,16.50
2008,06,24,15,33,16.40
2008,06,24,15,34,16.40
2008,06,24,15,35,16.40
2008,06,24,15,36,16.40
2008,06,24,15,37,16.50
2008,06,24,15,38,16.60
2008,06,24,15,39,16.50
2008,06,24,15,40,16.40
2008,06,24,15,41,16.30
2008,06,24,15,42,16.20
2008,06,24,15,43,16.10
2008,06,24,15,44,16.10
2008,06,24,15,45,16.20
2008,06,24,15,46,16.10
2008,06,24,15,47,16.10
2008,06,24,15,48,16.10
2008,06,24,15,49,16.10
2008,06,24,15,50,16.20
2008,06,24,15,51,16.20
2008,06,24,15,52,16.30
2008,06,24,15,53,16.30
2008,06,24,15,54,16.40
2008,06,24,15,55,16.50
2008,06,24,15,56,16.50
2008,06,24,15,57,16.40
2008,06,24,15,58,16.40
2008,06,24,15,59,16.40
2008,06,24,16,00,16.50
2008,06,24,16,01,16.60
2008,06,24,16,02,16.70
2008,06,24,16,03,16.80
2008,06,24,16,04,17.00
2008,06,24,16,05,17.10
2008,06,24,16,06,17.10
2008,06,24,16,07,17.10
2008,06,24,16,08,17.00
2008,06,24,16,09,17.00
2008,06,24,16,10,16.90
2008,06,24,16,11,16.90
2008,06,24,16,12,16.90
2008,06,24,16,13,16.80
2008,06,24,16,14,16.80
2008,06,24,16,15,16.80
2008,06,24,16,16,16.80
2008,06,24,16,17,16.80
2008,06,24,16,18,16.80
2008,06,24,16,19,16.80
2008,06,24,16,20,16.80
2008,06,24,16,21,16.70
2008,06,24,16,22,16.60
2008,06,24,16,23,16.70
2008,06,24,16,24,16.60
2008,06,24,16,25,16.60
2008,06,24,16,26,16.60
2008,06,24,16,27,16.60
2008,06,24,16,28,16.60
2008,06,24,16,29,16.60
2008,06,24,16,30,16.60
2008,06,24,16,31,16.70
2008,06,24,16,32,16.70
2008,06,24,16,33,16.80
2008,06,24,16,34,16.80
2008,06,24,16,35,16.80
2008,06,24,16,36,16.80
2008,06,24,16,37,16.90
2008,06,24,16,38,17.00
2008,06,24,16,39,17.00
2008,06,24,16,40,17.00
2008,06,24,16,41,17.00
2008,06,24,16,42,17.00
2008,06,24,16,43,16.90
2008,06,24,16,44,16.90
2008,06,24,16,45,16.90
2008,06,24,16,46,16.90
2008,06,24,16,47,17.00
2008,06,24,16,48,17.00
2008,06,24,16,49,17.10
2008,06,24,16,50,17.20
2008,06,24,16,51,17.20
2008,06,24,16,52,17.30
2008,06,24,16,53,17.30
2008,06,24,16,54,17.30
2008,06,24,16,55,17.30
2008,06,24,16,56,17.30
2008,06,24,16,57,17.30
2008,06,24,16,58,17.20
2008,06,24,16,59,17.20
2008,06,24,17,00,17.20
2008,06,24,17,01,17.40
2008,06,24,17,02,17.40
2008,06,24,17,03,17.50
2008,06,24,17,04,17.50
2008,06,24,17,05,17.50
2008,06,24,17,06,17.50
2008,06,24,17,07,17.40
2008,06,24,17,08,17.40
2008,06,24,17,09,17.40
2008,06,24,17,10,17.40
2008,06,24,17,11,17.40
2008,06,24,17,12,17.50
2008,06,24,17,13,17.60
2008,06,24,17,14,17.60
2008,06,24,17,15,17.70
2008,06,24,17,16,17.70
2008,06,24,17,17,17.70
2008,06,24,17,18,17.70
2008,06,24,17,19,17.70
2008,06,24,17,20,17.70
2008,06,24,17,21,17.80
2008,06,24,17,22,17.80
2008,06,24,17,23,17.80
2008,06,24,17,24,17.80
2008,06,24,17,25,17.80
2008,06,24,17,26,17.80
2008,06,24,17,27,17.90
2008,06,24,17,28,17.90
2008,06,24,17,29,17.90
2008,06,24,17,30,17.90
2008,06,24,17,31,18.00
2008,06,24,17,32,18.00
2008,06,24,17,33,18.00
2008,06,24,17,34,18.00
2008,06,24,17,35,18.10
2008,06,24,17,36,18.10
2008,06,24,17,37,18.10
2008,06,24,17,38,17.90
2008,06,24,17,39,17.80
2008,06,24,17,40,17.80
2008,06,24,17,41,17.80
2008,06,24,17,42,17.80
2008,06,24,17,43,17.80
2008,06,24,17,44,17.80
2008,06,24,17,45,17.80
2008,06,24,17,46,17.70
2008,06,24,17,47,17.70
2008,06,24,17,48,17.70
2008,06,24,17,49,17.60
2008,06,24,17,50,17.60
2008,06,24,17,51,17.60
2008,06,24,17,52,17.60
2008,06,24,17,53,17.60
2008,06,24,17,54,17.70
2008,06,24,17,55,17.70
2008,06,24,17,56,17.60
2008,06,24,17,57,17.60
2008,06,24,17,58,17.60
2008,06,24,17,59,17.60
2008,06,24,18,00,17.60
2008,06,24,18,01,17.60
2008,06,24,18,02,17.70
2008,06,24,18,03,17.70
2008,06,24,18,04,17.70
2008,06,24,18,05,17.70
2008,06,24,18,06,17.70
2008,06,24,18,07,17.70